Theta_e
312 311 311 310 308 309 310 310 310 308 308 309 307 307 309 310 308 308 309 310 311 312 313 312 312 311 310 310 308 307 306 304 304 304 304 305 305 304 304 303 302 302 301 301
311 312 311 310 308 309 310 310 308 308 308 309 308 308 309 310 308 309 309 309 310 311 312 312 312 311 310 310 309 308 307 305 303 303 304 304 304 304 303 302 301 301 301 301
311 312 308 310 309 310 309 309 309 311 308 307 307 309 309 310 308 310 310 310 310 311 312 312 312 311 311 310 310 308 307 305 303 303 303 304 303 303 303 302 301 300 300 300
311 309 309 309 310 308 311 307 309 310 309 311 308 314 310 310 308 307 309 309 310 310 311 312 312 311 311 310 309 308 307 305 303 302 302 303 303 303 302 302 300 299 299 299
313 309 309 310 310 307 311 309 309 309 308 309 310 311 310 308 311 309 306 308 310 310 310 310 311 312 311 310 309 309 307 305 303 302 301 302 302 302 302 301 301 299 298 298
309 309 308 309 308 307 306 310 309 307 308 313 311 311 312 312 311 308 306 307 308 309 310 310 311 311 310 309 308 308 308 306 303 301 300 300 300 300 301 301 301 299 297 297
313 311 308 308 310 307 309 310 315 316 314 317 307 309 312 311 307 305 304 305 307 308 309 310 310 310 310 309 309 308 308 307 304 301 300 299 298 298 299 299 298 296 295 295
314 315 310 307 310 311 308 309 315 320 317 313 308 313 313 306 303 303 303 303 305 307 308 309 309 309 309 308 307 307 306 305 303 301 299 297 296 296 296 296 295 294 294 294
312 313 308 306 307 309 310 311 309 313 310 311 312 310 309 305 304 301 299 299 299 301 303 306 307 307 306 306 306 305 304 302 301 300 298 296 295 295 294 294 293 293 292 292
312 314 309 306 306 305 309 307 312 309 317 318 314 312 314 307 307 301 297 295 295 297 300 303 304 305 305 304 303 303 301 300 299 298 297 296 294 294 293 292 291 291 290 290
309 311 311 306 307 309 306 308 308 309 312 316 316 315 308 309 306 302 295 294 294 295 297 299 301 302 302 302 300 300 299 299 297 296 295 294 294 293 292 291 291 290 289 289
308 307 311 310 308 306 306 307 309 313 314 314 313 317 305 305 302 297 294 293 293 293 293 294 295 296 296 296 296 296 295 295 295 294 293 292 291 291 291 291 290 291 293 292
307 309 312 313 310 309 308 306 306 311 312 317 318 316 302 300 297 295 294 294 293 292 293 293 294 294 294 295 294 294 294 294 294 294 293 292 290 290 290 290 291 291 291 290
310 309 313 317 314 311 310 309 307 311 316 316 316 316 309 303 301 295 295 295 292 291 291 291 291 291 291 291 291 291 292 291 291 291 290 290 290 291 291 290 290 289 288 289
309 315 312 313 313 314 314 313 312 312 313 316 316 316 314 310 303 298 296 293 291 290 289 289 288 288 288 289 289 289 289 289 289 288 288 289 289 289 289 288 288 288 287 287
307 315 312 313 312 310 312 312 313 313 313 314 315 315 313 298 301 296 294 291 289 288 287 286 286 286 286 286 286 286 286 286 286 286 286 287 287 286 286 286 286 286 286 286
311 313 314 317 315 316 317 316 315 314 313 313 315 313 296 296 296 293 291 290 287 286 285 285 284 284 284 284 284 284 284 284 283 284 283 284 284 284 284 284 284 284 284 284
314 313 313 317 316 318 313 298 304 311 307 300 297 294 293 292 288 288 288 287 285 284 284 283 283 283 283 283 283 282 282 282 282 282 282 281 281 281 281 281 281 281 281 281
313 315 316 317 317 314 309 297 298 303 299 291 295 290 287 285 285 284 284 284 283 283 282 282 282 282 281 281 281 281 281 280 280 280 280 280 280 279 279 279 279 279 279 279
311 314 316 316 317 317 295 291 290 293 302 289 291 288 287 288 291 284 282 282 282 282 281 281 281 280 279 279 280 280 279 278 278 278 278 278 278 277 277 277 277 277 277 277
310 311 314 316 317 299 285 283 287 302 291 283 284 284 285 283 282 282 282 281 281 280 280 280 279 279 278 278 278 278 277 277 277 277 276 276 276 276 276 275 275 275 276 276
302 303 306 305 311 308 281 286 290 283 282 282 282 282 282 281 281 280 280 280 279 279 278 278 278 278 277 277 276 276 276 275 275 274 275 275 275 274 274 274 274 274 274 274
301 288 291 286 287 281 279 278 279 281 279 279 279 280 280 280 279 279 279 278 277 277 277 276 276 276 276 275 274 274 274 274 274 274 274 274 274 274 274 273 273 273 273 272
282 280 286 284 281 279 278 278 278 278 278 278 278 278 279 278 278 278 277 277 276 276 275 274 274 274 275 274 274 274 274 273 273 274 274 273 273 273 273 273 272 272 271 271
277 278 278 281 280 279 278 277 277 277 277 277 277 277 277 276 276 276 276 275 275 274 274 274 274 273 274 274 274 274 274 274 273 273 273 273 273 273 273 273 272 271 271 271
277 276 275 277 277 277 276 276 276 276 275 275 275 275 275 274 274 273 273 273 273 273 274 273 273 273 274 274 274 275 274 273 273 273 273 273 272 272 272 271 270 270 270 270
Wind_Speed
1 2 6 8 6 2 2 2 5 4 3 3 7 10 19 20 17 21 26 24 25 28 25 24 24 24 24 21 20 18 15 14 13 11 10 9 8 7 6 5 4 4 3 1
3 7 4 3 4 2 2 2 6 6 2 3 7 11 17 21 11 11 7 10 20 25 27 24 26 27 27 23 20 19 17 15 13 12 11 11 10 9 8 7 7 6 4 3
6 1 4 3 3 3 3 5 4 6 5 2 6 8 6 4 4 8 8 6 11 24 27 26 27 28 27 25 22 19 18 16 14 14 15 13 12 11 11 10 9 8 6 6
5 1 4 3 4 7 3 5 3 2 3 3 4 7 6 7 10 6 10 6 6 16 22 25 27 28 28 25 21 18 17 17 16 16 16 14 13 12 12 11 11 10 9 8
6 6 4 5 7 7 5 2 2 1 2 3 2 0 8 3 6 5 6 2 2 7 15 21 25 25 26 25 22 19 17 17 17 17 16 16 16 15 13 13 13 12 11 10
6 1 5 6 2 4 5 3 4 3 2 1 5 6 5 4 2 5 5 5 3 7 11 13 18 20 23 24 22 19 16 16 17 17 17 17 16 16 16 15 15 14 13 12
2 4 2 3 3 1 3 4 3 4 2 6 4 2 8 4 3 3 4 9 10 11 12 13 14 17 20 23 23 20 18 17 17 16 16 16 16 16 15 14 14 14 14 13
4 7 8 5 6 7 6 7 5 6 4 5 2 7 6 3 6 8 11 12 13 14 14 15 14 14 16 21 22 19 16 15 14 14 15 14 14 14 14 14 14 14 14 15
6 6 2 3 2 3 4 5 2 1 2 2 5 7 5 4 4 5 9 11 12 13 14 16 16 16 17 17 16 14 13 13 12 12 12 12 12 12 13 13 13 14 14 14
3 5 2 2 2 2 3 3 3 2 4 6 6 6 7 7 8 5 5 9 10 11 13 14 15 14 15 15 16 15 14 13 11 10 10 10 10 10 11 11 12 12 13 13
4 4 3 4 7 9 2 2 2 2 4 5 5 7 6 7 8 10 7 11 11 12 13 14 14 13 12 12 12 12 11 11 10 10 9 9 9 9 9 10 10 11 12 14
6 5 6 12 3 2 4 9 10 6 7 5 3 18 3 2 5 13 13 14 12 11 10 12 13 12 11 10 10 10 10 9 8 8 7 7 8 9 9 10 11 14 17 20
7 4 4 8 2 3 5 5 5 2 2 19 7 10 1 5 6 13 18 18 13 12 10 9 9 9 7 7 5 6 5 6 7 9 10 10 10 11 12 14 16 18 15 13
11 6 8 17 12 4 5 7 7 12 8 8 20 22 8 8 10 10 16 16 15 13 13 10 8 8 7 6 5 4 4 3 3 4 7 9 10 10 11 11 10 11 12 13
7 18 9 19 20 15 18 19 12 15 17 11 21 18 21 14 17 20 21 20 18 15 13 11 10 9 7 5 3 2 1 1 1 2 4 5 6 8 9 10 11 12 13 13
4 14 9 19 13 13 19 25 22 24 25 21 24 30 21 6 17 17 21 21 19 18 14 11 9 7 6 3 2 1 2 2 3 4 5 7 8 9 10 11 13 15 15 15
6 5 6 16 16 16 17 27 27 24 19 19 22 29 6 6 10 15 18 19 19 15 12 9 7 5 4 1 1 3 5 6 6 7 8 9 10 11 12 13 15 17 18 19
12 12 4 10 10 16 10 3 2 16 10 3 4 4 7 14 18 19 18 20 16 13 9 5 4 3 1 2 4 5 7 8 9 9 10 11 13 14 15 16 17 18 19 21
20 18 9 10 16 17 4 5 4 1 2 7 4 10 16 22 24 16 13 14 13 9 7 3 2 3 4 5 6 7 8 10 11 12 13 14 16 18 19 20 20 21 22 23
14 22 16 14 17 20 6 6 17 5 2 13 7 6 9 6 2 3 9 6 7 4 1 2 4 6 8 9 10 11 12 12 14 15 17 18 20 22 22 23 23 24 23 25
5 6 16 20 14 5 8 18 17 2 4 12 16 12 10 4 6 14 7 5 3 2 3 6 7 9 10 13 14 14 16 16 17 18 20 20 20 22 23 24 24 25 26 26
4 6 5 7 6 4 29 7 6 1 14 13 15 14 18 15 11 7 4 3 4 6 7 9 10 11 13 15 17 17 16 17 19 21 21 21 21 21 22 23 24 24 25 26
4 4 4 5 3 6 15 12 15 10 12 14 14 14 10 8 8 4 5 7 8 10 12 13 14 14 13 15 17 17 17 20 21 21 21 22 22 22 21 24 25 26 26 27
10 23 4 3 5 8 18 16 16 15 15 12 12 11 10 9 8 8 8 10 13 14 16 17 16 15 16 16 16 18 20 21 22 24 24 24 25 24 24 25 25 26 26 26
7 10 8 2 5 7 14 15 14 14 13 13 11 11 11 11 12 13 14 15 16 17 18 17 17 20 20 20 20 19 21 22 24 25 25 25 26 26 26 25 24 23 24 23
14 5 4 2 14 6 6 12 14 15 17 16 17 16 14 14 15 16 17 17 18 19 18 21 21 22 23 23 23 22 23 24 25 27 27 27 28 27 26 25 25 21 21 21
Wind_Direction
33 75 222 222 202 172 150 198 251 253 266 269 234 268 283 290 240 253 262 256 237 227 222 216 212 210 207 210 212 214 219 220 220 219 214 209 205 205 209 212 209 207 208 202
17 237 220 118 142 144 152 247 262 283 279 196 304 277 277 282 267 257 273 255 228 222 221 214 210 210 210 213 212 214 217 222 220 217 216 215 216 219 222 223 225 222 225 236
187 245 118 135 157 183 218 198 229 238 332 266 322 282 307 295 275 282 270 276 225 219 214 209 209 210 210 212 215 215 217 221 222 220 221 221 226 226 227 229 231 230 232 240
232 253 173 180 230 155 269 206 171 253 36 255 4 289 305 290 300 272 270 248 233 213 213 211 210 209 210 211 211 214 217 222 225 226 227 231 234 233 232 231 234 237 239 243
254 169 185 197 218 163 223 105 138 96 155 9 277 188 268 311 304 343 344 262 230 198 204 207 209 211 210 208 209 211 216 223 227 232 232 233 234 234 234 238 239 240 242 245
245 262 189 211 129 166 134 96 61 61 100 316 216 170 273 231 227 312 3 71 90 156 163 181 199 209 211 206 208 212 220 226 231 234 236 239 241 241 243 244 243 244 247 249
281 222 224 174 126 51 125 70 318 326 1 230 147 179 242 239 320 288 328 97 108 132 147 161 179 193 202 206 208 213 220 226 231 236 239 242 244 246 248 247 247 249 253 257
207 307 182 178 201 184 179 170 168 246 227 262 128 238 247 131 89 88 102 114 117 120 129 139 148 164 182 194 202 209 218 222 224 231 240 243 245 248 249 247 248 251 255 259
179 265 155 189 151 151 179 184 196 166 117 352 226 284 276 141 111 92 97 112 103 111 121 129 141 153 164 179 193 201 208 213 218 226 235 242 245 245 247 250 253 254 257 259
220 291 194 141 114 42 166 164 79 11 248 245 270 269 239 224 202 158 124 108 113 116 121 125 133 142 155 168 181 187 197 203 210 220 230 236 242 243 245 246 247 250 253 256
157 167 241 130 196 185 129 217 216 178 172 213 266 260 215 218 183 170 144 143 136 125 122 124 128 137 149 163 175 180 192 202 205 212 226 234 240 242 243 247 252 259 265 269
210 172 234 218 237 195 193 203 179 205 234 238 256 264 7 62 122 134 137 145 142 134 129 133 135 136 144 153 166 178 181 198 198 211 230 245 250 252 256 258 256 270 273 277
186 217 309 309 23 14 229 210 216 314 10 243 238 253 112 111 118 148 147 156 151 152 143 142 142 144 154 160 187 190 202 225 245 247 249 253 258 261 263 269 277 281 280 275
167 189 204 254 250 148 208 221 211 220 239 245 234 262 214 201 182 168 163 160 157 159 155 155 143 132 133 136 144 150 152 181 219 230 241 249 258 271 276 277 279 281 277 276
181 256 231 256 260 258 259 258 231 229 235 242 261 241 255 216 195 183 166 158 155 152 150 149 142 131 132 131 136 132 138 183 259 277 280 290 296 291 286 284 280 275 273 276
203 247 222 255 260 241 253 253 246 246 249 250 252 260 265 76 146 155 159 155 148 148 147 142 132 125 119 109 88 50 5 343 333 312 308 303 296 291 290 285 281 273 270 271
186 231 198 259 270 261 252 246 246 247 243 234 244 252 127 154 145 145 142 142 139 141 139 136 133 124 124 122 14 350 340 334 325 319 312 305 299 297 295 290 285 281 281 280
232 230 241 262 264 247 250 17 272 224 248 19 39 68 78 113 95 111 132 138 132 131 129 134 135 122 78 315 333 332 317 313 313 310 305 303 303 303 298 294 290 290 290 288
232 241 252 251 242 257 264 14 11 139 7 355 105 105 109 108 93 72 107 122 124 128 136 165 314 333 325 304 310 315 313 309 307 302 303 307 303 299 298 298 300 298 296 293
246 237 238 244 259 264 44 343 337 301 215 3 62 102 123 126 137 93 117 108 112 121 99 325 323 320 310 308 308 308 306 302 302 302 302 300 298 297 297 299 299 297 295 294
332 291 246 238 245 111 339 308 307 160 1 10 48 45 67 79 73 126 121 94 35 10 338 310 309 308 305 306 307 308 307 305 302 300 299 299 299 300 299 299 299 296 295 292
319 315 321 326 308 240 352 346 36 299 54 48 53 61 87 98 96 94 82 39 345 328 314 307 308 304 298 300 302 305 306 302 302 301 301 300 300 298 301 298 297 296 296 295
302 337 321 9 25 18 23 43 44 64 67 52 47 41 54 63 57 28 17 349 327 317 312 307 303 302 301 302 306 306 304 302 301 299 299 302 300 301 301 298 298 299 299 295
11 17 35 233 17 24 37 40 40 41 48 42 37 31 26 18 357 343 333 326 322 315 311 311 308 305 304 303 302 303 302 304 302 302 303 300 301 303 300 299 298 297 295 293
342 332 324 103 32 323 37 29 18 22 28 27 16 9 3 349 336 329 325 319 314 311 310 306 303 304 308 309 307 308 307 305 301 298 301 302 302 300 299 298 299 296 294 296
358 346 356 331 339 298 1 4 9 7 7 2 353 347 343 335 326 319 316 315 314 310 307 307 307 306 307 308 311 312 307 302 301 302 303 302 302 302 300 301 299 292 292 291